Weather History for Cairo, Egypt

Change the Weather History Date:

Saturday, November 26, 2011

  Actual Average Record
Temperature  
Mean Temperature 60 °F -  
Max Temperature 67 °F 67 °F 91 °F (2013)
Min Temperature 54 °F 51 °F 53 °F (2000)
Degree Days  
Heating Degree Days 4    
Growing Degree Days 10 (Base 50)    
Moisture  
Dew Point 49 °F    
Average Humidity 63    
Maximum Humidity 77    
Minimum Humidity 37    
Precipitation  
Precipitation 0.00 in 0.01 in - ()
Sea Level Pressure  
Sea Level Pressure 30.12 in    
Wind  
Wind Speed 4 mph ()    
Max Wind Speed 13 mph    
Max Gust Speed -    
Visibility 4.2 miles    
Events      
Averages and records for this station are not official NWS values.
T = Trace of Precipitation, MM = Missing Value Source: Averaged Metar Reports

Daily Weather History Graph

Daily Weather History Graph

Search for Another Location

Airport:

Trip Planner

Search our weather history database for the weather conditions in past years. The results will help you decide how hot, cold, wet, or windy it might be!

Date:

Astronomy

Nov. 26, 2011 Rise Set
Actual Time 6:28 AM EET 4:54 PM EET
Civil Twilight 6:02 AM EET 5:20 PM EET
Nautical Twilight 5:33 AM EET 5:49 PM EET
Astronomical Twilight 5:04 AM EET 6:18 PM EET
Moon 7:34 AM EET (11/26) 6:07 PM EET (11/26)
Length of Visible Light 11h 17m
Length of Day
10h 26m
New Moon, 2% of the Moon is Illuminated
Nov 26
New Moon
Dec 2
First Quarter
Dec 10
Full
Dec 18
Last Quarter
Dec 24
New

Hourly Weather History & Observations

Time (EET) Temp. Dew Point Humidity Pressure Visibility Wind Dir Wind Speed Gust Speed Precip Events Conditions
12:00 AM 60.8 °F 50.0 °F 68% 30.12 in - NNW 4.6 mph - N/A   Clear
12:30 AM 59.0 °F 50.0 °F 72% 30.12 in - NW 2.3 mph - N/A   Clear
1:00 AM 59.0 °F 50.0 °F 72% 30.12 in - NW 2.3 mph - N/A   Clear
1:30 AM 57.2 °F 50.0 °F 77% 30.12 in - Calm Calm - N/A   Clear
2:00 AM 58 °F 48 °F 61% 30.12 in 6 mi Calm Calm - -  
2:00 AM 57.2 °F 48.2 °F 72% 30.12 in - Calm Calm - N/A   Clear
2:30 AM 57.2 °F 48.2 °F 72% 30.09 in - West 1.2 mph - N/A   Clear
3:00 AM 57.2 °F 48.2 °F 72% 30.09 in 3.7 mi SSW 2.3 mph - N/A   Unknown
3:30 AM 57.2 °F 48.2 °F 72% 30.09 in 3.7 mi WSW 1.2 mph - N/A   Unknown
4:00 AM 57.2 °F 48.2 °F 72% 30.09 in 3.7 mi Calm Calm - N/A   Unknown
4:30 AM 55.4 °F 48.2 °F 77% 30.09 in 3.7 mi Calm Calm - N/A   Unknown
5:00 AM 57.2 °F 48.2 °F 72% 30.09 in 3.7 mi North 2.3 mph - N/A   Unknown
5:30 AM 55.4 °F 46.4 °F 72% 30.09 in 3.7 mi South 3.5 mph - N/A   Unknown
6:00 AM 53.6 °F 46.4 °F 77% 30.12 in 3.7 mi SSW 2.3 mph - N/A   Unknown
6:30 AM 53.6 °F 46.4 °F 77% 30.12 in 2.5 mi SSW 2.3 mph - N/A   Mist
7:00 AM 55.4 °F 48.2 °F 77% 30.12 in 2.5 mi South 2.3 mph - N/A   Mist
7:30 AM 57.2 °F 48.2 °F 72% 30.15 in 2.5 mi SSW 3.5 mph - N/A   Mist
8:00 AM 58 °F 49 °F 65% 30.16 in 2 mi NW 2.3 mph - -   Mist
8:00 AM 57.2 °F 50.0 °F 77% 30.15 in 1.9 mi NW 2.3 mph - N/A   Mist
8:30 AM 60.8 °F 51.8 °F 72% 30.15 in 1.9 mi NNW 1.2 mph - N/A   Mist
9:00 AM 60.8 °F 50.0 °F 68% 30.15 in 1.9 mi East 3.5 mph - N/A   Mist
9:30 AM 64.4 °F 51.8 °F 64% 30.15 in 1.9 mi Calm Calm - N/A   Haze
10:00 AM 64.4 °F 51.8 °F 64% 30.15 in 3.7 mi NW 3.5 mph - N/A   Unknown
10:30 AM 66.2 °F 50.0 °F 56% 30.15 in 3.7 mi WNW 4.6 mph - N/A   Unknown
11:00 AM 64.4 °F 50.0 °F 59% 30.15 in 3.7 mi North 8.1 mph - N/A   Unknown
11:30 AM 66.2 °F 50.0 °F 56% 30.12 in 3.7 mi NNW 8.1 mph - N/A   Unknown
12:00 PM 66.2 °F 50.0 °F 56% 30.12 in 3.7 mi NW 5.8 mph - N/A   Scattered Clouds
12:30 PM 66.2 °F 48.2 °F 52% 30.09 in 3.7 mi NNW 6.9 mph - N/A   Scattered Clouds
1:00 PM 68.0 °F 48.2 °F 49% 30.09 in 6.2 mi NNW 6.9 mph - N/A   Scattered Clouds
1:30 PM 68.0 °F 46.4 °F 46% 30.09 in 6.2 mi NW 8.1 mph - N/A   Scattered Clouds
2:00 PM 68 °F 47 °F 37% 30.10 in 6 mi NNW 9.2 mph - -   Partly Cloudy
2:00 PM 68.0 °F 48.2 °F 49% 30.09 in 6.2 mi NNW 9.2 mph - N/A   Scattered Clouds
2:30 PM 68.0 °F 48.2 °F 49% 30.09 in 6.2 mi North 11.5 mph - N/A   Partly Cloudy
3:00 PM 68.0 °F 48.2 °F 49% 30.09 in 6.2 mi NW 8.1 mph - N/A   Scattered Clouds
3:30 PM 68.0 °F 48.2 °F 49% 30.09 in 6.2 mi North 9.2 mph - N/A   Scattered Clouds
4:00 PM 66.2 °F 50.0 °F 56% 30.09 in 6.2 mi North 10.4 mph - N/A   Scattered Clouds
4:30 PM 66.2 °F 50.0 °F 56% 30.09 in 6.2 mi NNE 11.5 mph - N/A   Scattered Clouds
5:00 PM 64.4 °F 48.2 °F 56% 30.09 in - NNE 11.5 mph - N/A   Clear
5:30 PM 64.4 °F 48.2 °F 56% 30.12 in - NNE 10.4 mph - N/A   Clear
6:00 PM 64.4 °F 50.0 °F 59% 30.12 in - NNE 11.5 mph - N/A   Clear
6:30 PM 62.6 °F 50.0 °F 63% 30.12 in - NNE 12.7 mph - N/A   Clear
7:00 PM 62.6 °F 50.0 °F 63% 30.12 in - NE 12.7 mph - N/A   Clear
7:30 PM 62.6 °F 48.2 °F 59% 30.12 in - NE 9.2 mph - N/A   Clear
8:00 PM 62 °F 48 °F 49% 30.16 in 6 mi ENE 8.1 mph - -  
8:00 PM 62.6 °F 48.2 °F 59% 30.15 in - ENE 8.1 mph - N/A   Clear
8:30 PM 59.0 °F 46.4 °F 63% 30.15 in - NE 6.9 mph - N/A   Clear
9:00 PM 59.0 °F 46.4 °F 63% 30.15 in - NE 5.8 mph - N/A   Clear
9:30 PM 59.0 °F 46.4 °F 63% 30.15 in - ENE 5.8 mph - N/A   Clear
10:00 PM 59.0 °F 46.4 °F 63% 30.15 in - East 5.8 mph - N/A   Clear
10:30 PM 59.0 °F 46.4 °F 63% 30.15 in - East 5.8 mph - N/A   Clear
11:00 PM 59.0 °F 46.4 °F 63% 30.15 in - East 8.1 mph - N/A   Clear
11:30 PM 57.2 °F 46.4 °F 67% 30.15 in - East 8.1 mph - N/A   Clear